Regional Weather Roundup
Issued by NWS

Home | Current Version | Previous Version | Graphics & Text | Print | Product List | Glossary On
Versions: 1 2 3 4 5 6 7 8 9 10 11 12 13 14 15 16 17 18 19 20 21 22 23 24 25 26 27 28 29 30 31 32 33 34 35 36 37 38 39 40 41 42 43 44 45 46 47 48 49 50
994
ASUS43 KLMK 240102
RWRKY
KENTUCKY REGIONAL WEATHER ROUNDUP
NATIONAL WEATHER SERVICE LOUISVILLE KY
800 PM EST MON JAN 23 2017

NOTE "FAIR" INDICATES FEW OR NO CLOUDS BELOW 12,000 FEET
WITH NO SIGNIFICANT WEATHER AND/OR OBSTRUCTIONS TO VISIBILITY.

KYZ001>023-026-027-061>063-070>075-240200-
WESTERN AND SOUTH CENTRAL KENTUCKY

CITY           SKY/WX    TMP DP  RH WIND       PRES   REMARKS
PADUCAH        CLOUDY    43  34  70 N10       29.84R
HENDERSON      CLOUDY    43  34  70 NW12      29.82R
OWENSBORO      CLOUDY    42  36  79 N14G21    29.81R
HOPKINSVILLE   CLOUDY    42  36  80 NW13      29.81R
BOWLING GREEN  CLOUDY    43  36  76 W12       29.78R
GLASGOW        NOT AVBL
$$

KYZ024-025-028>034-038-045-046-053-240200-
NORTH CENTRAL KENTUCKY

CITY           SKY/WX    TMP DP  RH WIND       PRES   REMARKS
LOUISVILLE/SDF CLOUDY    46  40  79 NW9       29.72R
LOUISVILLE/LOU CLOUDY    46  40  79 NW13      29.72R
FORT KNOX      CLOUDY    41  39  93 W12       29.72R FOG
$$

KYZ035>037-039>044-047>052-055>060-089>105-240200-
NORTHEAST KENTUCKY

CITY           SKY/WX    TMP DP  RH WIND       PRES   REMARKS
LEXINGTON      CLOUDY    44  42  93 NW16G25   29.66R FOG
COVINGTON      DRIZZLE   45  44  97 NW13      29.65R FOG
FRANKFORT      CLOUDY    45  41  86 NW13      29.67R
$$

KYZ054-064>069-076>088-106>120-240200-
SOUTHEAST KENTUCKY

CITY           SKY/WX    TMP DP  RH WIND       PRES   REMARKS
JACKSON        LGT RAIN  46  44  93 NW6       29.57R FOG
LONDON         LGT RAIN  45  43  93 NW9       29.63R FOG
SOMERSET       CLOUDY    43  43 100 W12G17    29.69R
MIDDLESBORO    DRIZZLE   47  45  90 NW8       29.62R
MONTICELLO     LGT RAIN  44  42  93 NW15      29.72R FOG
$$





USA.gov is the U.S. government's official web portal to all federal, state and local government web resources and services.